THORAD DELTA 1 DEB, 42591

Orbit data source: Space-Track

THORAD DELTA 1 DEB, 42591 is space debris in SSO originally from a launch on Fri, 15 Nov 1974 UTC launched from the Air Force Western Test Range (AFWTR). Debris objects in space refer to the collection of defunct objects orbiting the Earth. Examples of debris include non-operational satellites, rocket bodies, and fragments generated from explosions, collisions, or faulty payload assembly.

Loading next visibility...
Identifier
42591, 1974-089BV
Orbit
SSO
Country
Flag of USUS
Related business
Manufacturer
Unknown
Mission
Spacecraft
Bus & Motor
Unknown
Mass
Unknown
Launch date (UTC)
1974-11-15 (51 years ago)
Launch vehicle
Unknown
Launch site
Air Force Western Test Range (AFWTR)
Object type
Payload
Rocket body
Debris
Shape & HBR
Unknown shape, 0.1 m
Radar Cross Section
Small (<0.1 m²)

Expand to show TLE details & history
Last TLE update: 2 months ago

TLE from 2 months ago
0 THORAD DELTA 1 DEB
1 42591U 74089BV  25224.59951325  .00000058  00000-0  79294-3 0  9990
2 42591 101.8017 341.4194 0116672  92.9232 268.5188 12.33987548776230
Epoch: 2025-08-12T14:23Z
TLE epoch observation values (Epoch: 2025-08-12T14:23:17.944Z)
Latitude
-0°
Longitude
164.30479°
Altitude
1,538.205 km
Speed
7.096 km/s
True Right ascension
22h 45m 40s
True Declination
0° 00' 00"
Sunlit
Object was in full shadow at epoch
Visualization orbit readout
Latitude
Unknown
Longitude
Unknown
Altitude
Unknown
Speed
Unknown
Apparent Right ascension
Unknown
Apparent Declination
Unknown
Sunlit
N/A
Visualization observer readout
Local Sidereal Time
18:25:24
Azimuth
Unknown
Elevation
Unknown
Doppler factor
Unknown
Orbital elements
Apogee altitude
1,622.028 km
Perigee altitude
1,437.501 km
Semi-major axis
7,907.901 km
Eccentricity
0.01167
Inclination
101.8017°
RAAN
341.4194°
Arg. of periapsis
92.9232°
True anomaly
267.18291°
Mean anomaly
268.5188°
Eccentric anomaly
267.85079°
Mean motion
3.08639 °/min
Orbital period
116.64 mins
BSTAR
0.00079294
Loading maneuver chart data...
Computing Atmospheric mass density...

Documentation

Showing up to 5 results
|